FW6482 Weather Reports


time (UTC)temp
C
wind
direction
speed
KPH
gust
KPH
rain 1hr
cm
rain 24hr
cm
rain mn
cm
humidity
%
barometer
mb
20260506111519 11 238 0.0 3.2 0.00 1.52 0.46 94 1004.1
20260506110021 10 238 1.6 8.0 0.03 1.52 0.46 94 1004.0
20260506104519 11 11 0.0 4.8 0.03 1.52 0.46 95 1003.9
20260506103018 11 26 0.0 4.8 0.03 1.52 0.46 95 1003.8
20260506101519 11 302 1.6 11.3 0.03 1.52 0.46 95 1003.7
20260506100023 11 322 0.0 4.8 0.00 1.50 0.43 95 1003.5
20260506094517 11 322 0.0 8.0 0.00 1.50 0.43 96 1003.5
20260506093015 11 336 0.0 6.4 0.03 1.50 0.43 96 1003.4
20260506091518 11 335 0.0 8.0 0.03 1.50 0.43 96 1003.3
20260506090013 11 344 0.0 6.4 0.05 1.50 0.43 96 1003.2
20260506084511 10 342 0.0 4.8 0.05 1.50 0.43 96 1003.0
20260506083010 10 327 0.0 8.0 0.05 1.45 0.43 96 1003.0
20260506081510 10 327 3.2 9.7 0.05 1.45 0.43 96 1003.0
20260506073006 10 319 3.2 6.4 0.03 1.42 0.36 96 1002.8
20260506071505 10 319 1.6 6.4 0.05 1.42 0.36 96 1002.8
20260506061558 10 320 0.0 6.4 0.05 1.37 0.33 96 1002.5
20260506044549 10 320 0.0 6.4 0.03 1.35 0.28 96 1002.5
20260506043046 10 320 0.0 1.6 0.03 1.35 0.28 96 1002.5
20260506041550 10 320 0.0 3.2 0.03 1.35 0.28 96 1002.5
20260506040048 10 320 0.0 1.6 0.05 1.35 0.28 96 1002.6
20260506034545 10 320 0.0 0.0 0.05 1.32 0.25 96 1002.6
20260506033045 10 320 0.0 3.2 0.05 1.32 0.25 95 1002.6
20260506031543 10 320 0.0 3.2 0.08 1.32 0.25 95 1002.5
20260506030057 10 320 0.0 0.0 0.10 1.30 0.23 95 1002.5
20260506024551 10 320 0.0 0.0 0.08 1.27 0.23 95 1002.9
20260506023036 10 320 0.0 3.2 0.05 1.27 0.20 95 1003.0
20260506021536 10 320 0.0 3.2 0.05 1.24 0.18 95 1003.1
20260506020034 10 320 0.0 3.2 0.00 1.19 0.15 95 1003.2
20260506014543 10 320 0.0 3.2 0.03 1.19 0.15 95 1003.3
20260506013032 10 320 0.0 3.2 0.03 1.19 0.15 95 1003.4
20260506011537 10 320 0.0 1.6 0.03 1.19 0.15 95 1003.4
20260506010029 10 320 0.0 4.8 0.03 1.19 0.15 95 1003.4
20260506004543 10 320 0.0 3.2 0.00 1.17 0.13 95 1003.5
20260506003033 10 320 0.0 1.6 0.03 1.17 0.13 95 1003.5
20260506001526 10 320 0.0 3.2 0.03 1.17 0.13 95 1003.7
20260506000025 10 320 0.0 1.6 0.05 1.17 0.13 95 1003.9
20260505234522 10 320 0.0 1.6 0.05 1.17 0.13 95 1004.0
20260505233021 10 320 0.0 0.0 0.05 1.17 0.10 95 1004.1
20260505231525 10 320 0.0 1.6 0.05 1.17 0.10 95 1004.1
20260505230021 10 320 0.0 4.8 0.08 1.14 0.08 95 1004.2
20260505224517 10 320 0.0 3.2 0.10 1.14 0.08 95 1004.2
20260505223015 10 320 0.0 1.6 0.10 1.12 0.05 95 1004.3
20260505221518 10 320 0.0 3.2 0.08 1.09 0.03 95 1004.3
20260505220013 11 321 0.0 4.8 0.10 1.07 0.00 95 1004.4
20260505214513 11 321 0.0 1.6 0.10 1.04 1.04 94 1004.4
20260505213011 11 321 0.0 6.4 0.13 1.02 1.02 94 1004.5
20260505211510 11 312 0.0 6.4 0.13 0.99 0.99 94 1004.5
20260505210009 11 313 0.0 6.4 0.15 0.97 0.97 94 1004.6
20260505204508 11 313 0.0 6.4 0.15 0.94 0.94 94 1004.6
20260505203021 11 313 0.0 6.4 0.18 0.89 0.89 94 1004.6
20260505201506 11 313 0.0 4.8 0.20 0.89 0.89 94 1004.6
20260505200005 11 314 0.0 8.0 0.18 0.81 0.81 94 1004.5
20260505194503 11 319 0.0 8.0 0.20 0.79 0.79 94 1004.4
20260505193002 11 320 0.0 6.4 0.20 0.71 0.71 94 1004.3
20260505191503 11 319 0.0 3.2 0.23 0.69 0.69 93 1004.2
20260505190100 11 319 0.0 4.8 0.23 0.64 0.64 93 1004.2
20260505184603 12 319 0.0 4.8 0.20 0.58 0.58 93 1004.2
20260505183057 12 322 0.0 6.4 0.15 0.51 0.51 93 1004.2
20260505181556 12 331 0.0 4.8 0.15 0.46 0.46 92 1004.2
20260505180055 12 331 1.6 8.0 0.15 0.43 0.43 92 1004.2
20260505174554 12 333 0.0 6.4 0.15 0.41 0.38 92 1004.2
20260505173053 12 336 0.0 4.8 0.15 0.36 0.33 91 1004.3
20260505171553 13 295 0.0 8.0 0.18 0.33 0.30 91 1004.2
20260505170053 13 327 0.0 4.8 0.18 0.28 0.25 91 1004.2
20260505164551 13 328 0.0 6.4 0.15 0.25 0.20 91 1004.2
20260505163049 13 329 0.0 6.4 0.18 0.23 0.18 90 1004.3
20260505161550 14 328 1.6 8.0 0.13 0.18 0.13 90 1004.4
20260505153048 15 315 1.6 8.0 0.00 0.13 0.00 87 1004.6
20260505151543 15 311 0.0 3.2 0.00 0.13 0.00 86 1004.6
20260505124533 16 40 3.2 8.0 0.00 0.43 0.00 82 1005.4
20260505123042 16 36 1.6 6.4 0.00 0.43 0.00 81 1005.5
20260505121533 16 36 3.2 8.0 0.00 0.43 0.00 81 1005.4
20260505120040 16 35 3.2 8.0 0.00 0.43 0.00 81 1005.6
20260505114528 16 40 4.8 11.3 0.00 0.43 0.00 81 1005.7
20260505113027 16 42 4.8 9.7 0.00 0.43 0.00 82 1005.8